Home   Weather   Nanaimo   Past weeks
Flag for Canada

Past Weather in Nanaimo, British Columbia, Canada — Yesterday and Last 2 Weeks

Now
44 °F

Quite cool.


Feels Like: 38 °F
Forecast: 44 / 38 °F
Wind: 10 mph from Northwest

Location: Entrance Island

Current Time: Feb 24, 2020 at 10:28:55 am

Latest Report: Feb 24, 2020 at 9:00 am


Visibility: N/A

Pressure: 30.53 "Hg

Humidity: 72%

Dew Point: 35 °F

Location of NanaimoLocation

Past Weather in Nanaimo — Graph

°F

Nanaimo Temperature Yesterday

Maximum temperature yesterday: 52 °F (at 4:00 pm)
Minimum temperature yesterday: 43 °F (at 8:00 am)
Average temperature yesterday: 47 °F

High & Low Weather Summary for the Past Weeks

 TemperatureHumidityPressure
High52 °F (Feb 23, 4:00 pm)96% (Feb 12, 10:00 pm)30.53 "Hg (Feb 12, 10:00 pm)
Low36 °F (Feb 19, 7:00 am)60% (Feb 13, 8:00 pm)29.67 "Hg (Feb 23, 6:00 am)
Average44 °F82%30.20 "Hg
* Reported Feb 9 9:00 am — Feb 24 9:00 am, Nanaimo. Weather by CustomWeather, © 2020

Note: Actual official high and low records may vary slightly from our data, if they occured in-between our weather recording intervals... More about our weather records

Nanaimo Weather History for the Previous 24 Hours

Scroll right to see more
 ConditionsComfort  
Time TempWeatherWind HumidityBarometerVisibility
9:00 am
Mon, Feb 24
44 °FQuite cool.10 mph72%30.53 "HgN/A
8:00 am43 °FQuite cool.12 mph77%30.51 "HgN/A
7:00 am43 °FQuite cool.9 mph80%30.49 "HgN/A
6:00 am42 °FQuite cool.12 mph83%30.47 "HgN/A
5:00 am43 °FQuite cool.20 mph77%30.43 "HgN/A
4:00 am44 °FQuite cool.24 mph78%30.42 "HgN/A
3:00 am43 °FQuite cool.14 mph86%30.39 "HgN/A
2:00 am44 °FQuite cool.18 mph82%30.36 "HgN/A
1:00 am45 °FCool.14 mph83%30.31 "HgN/A
12:00 am47 °FCool.16 mph76%30.27 "HgN/A
11:00 pm
Sun, Feb 23
46 °FCool.15 mph87%30.23 "HgN/A
10:00 pm47 °FCool.20 mph83%30.19 "HgN/A
9:00 pm47 °FCool.23 mph80%30.14 "HgN/A
8:00 pm48 °FCool.23 mph81%30.10 "HgN/A
7:00 pm49 °FCool.28 mph80%30.05 "HgN/A
6:00 pm50 °FCool.9 mph76%29.96 "HgN/A
5:00 pm51 °FCool.16 mph70%29.89 "HgN/A
4:00 pm52 °FCool.10 mph64%29.85 "HgN/A
3:00 pm50 °FCool.12 mph73%29.81 "HgN/A
2:00 pm49 °FCool.13 mph73%29.79 "HgN/A
1:00 pm48 °FCool.15 mph75%29.76 "HgN/A
12:00 pm47 °FCool.20 mph80%29.76 "HgN/A
11:00 am46 °FCool.17 mph82%29.76 "HgN/A
10:00 am46 °FCool.12 mph81%29.76 "HgN/A
Weather by CustomWeather, © 2020

See weather overview

Advertising